Home > Time Zones > World Clock > Weather > China > Wuhan > Past weeks

Flag for China Weather past 2 weeks in Wuhan, Hubei, China

Now
43 °F

Passing clouds.


Feels Like: 38 °F
Forecast: 36 / 46 °F
Wind: 8 mph from Northeast

Location: Wuhan Airport

Current Time: Mar 5, 2015 at 6:28:27 PM

Latest Report: Mar 5, 2015 at 5:00 PM


Visibility: N/A

Pressure: 30.24 "Hg

Humidity: 61%

Dew point: 30 °F

Location of WuhanLocation

Historic Weather in Wuhan — Graph

°F

Wuhan temperature yesterday

Maximum temperature yesterday: 50 °F (at 2:00 PM)
Minimum temperature yesterday: 43 °F (at 6:00 AM)
Average temperature yesterday: 46 °F

Past Weeks' High & Low Weather Summary

 TemperatureHumidityPressure
High57 °F (Mar 3, 11:00 AM)100% (Feb 19, 7:00 PM)30.45 "Hg (Feb 19, 7:00 PM)
Low36 °F (Feb 28, 8:00 AM)20% (Mar 1, 4:00 PM)29.89 "Hg (Mar 2, 4:00 PM)
Average46 °F79%30.14 "Hg
* Reported Feb 18 5:00 PM — Mar 5 5:00 PM, Wuhan, Weather by CustomWeather, © 2015

Note: Actual official high and low records may vary slightly from our data, if they occured in-between our weather recording intervals... More about our weather records

Advertising

Wuhan weather history for previous 24 hours

 ConditionsComfort  
Time TempWeatherWind HumidityBarometerVisibility
5:00 PM
Thu, Mar 5
43 °FPassing clouds.8 mph61%30.24 "HgN/A
4:00 PM43 °FPassing clouds.8 mph61%30.24 "HgN/A
3:00 PM43 °FPassing clouds.6 mph66%30.24 "HgN/A
2:00 PM43 °FPassing clouds.6 mph57%30.27 "HgN/A
1:00 PM41 °FFog.3 mph76%30.27 "Hg3 mi
12:00 PM41 °FFog.3 mph76%30.30 "Hg2 mi
11:00 AM39 °FPassing clouds.3 mph81%30.30 "HgN/A
10:00 AM39 °FClear.1 mph81%30.33 "Hg5 mi
9:00 AM37 °FClear.3 mph87%30.30 "Hg5 mi
8:00 AM37 °FScattered clouds.6 mph87%30.27 "Hg4 mi
6:00 AM37 °FLight rain. Fog.8 mph87%30.24 "Hg3 mi
5:00 AM39 °FLight rain. Passing clouds.3 mph81%30.24 "Hg4 mi
4:00 AM41 °FLight rain. Clear.8 mph70%30.24 "HgN/A
3:00 AM43 °FClear.8 mph57%30.24 "Hg10 mi
2:00 AM43 °FClear.10 mph61%30.24 "Hg10 mi
1:00 AM43 °FClear.10 mph61%30.27 "Hg10 mi
12:00 AM43 °FClear.8 mph61%30.27 "Hg6 mi
11:00 PM
Wed, Mar 4
45 °FClear.13 mph57%30.24 "Hg6 mi
10:00 PM45 °FClear.8 mph61%30.27 "Hg5 mi
9:00 PM45 °FClear.10 mph61%30.27 "Hg5 mi
8:00 PM45 °FClear.8 mph61%30.24 "Hg5 mi
6:00 PM46 °FSunny.8 mph50%30.21 "Hg10 mi
Weather by CustomWeather, © 2015

See weather overviewHow to use our weather pages